Location: Waldport
(44.4270°N, 124.0680°W)
Time: 01:54:38
(UTC-07:00)

Daily predictions for brighter satellites

Satellite Brightness Start Highest point End
(mag) Time Altitude Azimuth Time Altitude Azimuth Time Altitude Azimuth
Terra 3.5 00:06:03 27° WNW 00:06:03 27° WNW 00:09:19 10° NW
Cosmos 2173 Rocket 4.4 00:13:09 56° NE 00:13:09 56° NE 00:18:24 10° NNE
Mayak 1.3 00:09:22 10° NNE 00:10:12 15° NE 00:10:12 15° NE
Cosmos 2344 4.3 00:07:41 10° WSW 00:15:05 52° NW 00:23:41 10° NE
CZ-4C R/B 2.9 00:14:52 46° WNW 00:15:31 48° NW 00:21:27 10° NNE
ATLAS 5 CENTAUR R/B 2.7 00:12:18 10° NW 00:17:13 62° WNW 00:17:13 62° WNW
USA 234 3.2 00:20:17 81° WNW 00:20:17 81° WNW 00:26:32 10° NW
SeaSat 1 3.6 00:28:35 38° NNE 00:28:35 38° NNE 00:32:06 10° NNW
Lacrosse 5 3.5 00:25:36 10° NW 00:28:06 29° WNW 00:28:06 29° WNW
Cosmos 1459 Rocket 4.2 00:44:57 64° NNW 00:44:57 64° NNW 00:50:12 10° N
Tsikada Rocket 4.5 00:38:37 10° N 00:43:53 53° NE 00:43:53 53° NE
H-2A R/B 4.1 00:59:36 28° NNW 00:59:36 28° NNW 01:01:45 10° NNW
Cosmos 1943 Rocket 3.8 00:56:22 10° NW 00:59:10 24° WNW 00:59:10 24° WNW
COSMOS 2406 4.2 01:32:46 42° NE 01:32:46 42° NE 01:36:36 10° NNE
Cosmos 2233 Rocket 4.3 01:37:40 63° N 01:37:40 63° N 01:42:45 10° N
Cosmos 2082 Rocket 4.2 01:48:31 18° E 01:48:31 18° E 01:51:10 10° ENE
Mayak 1.3 01:45:19 10° NNW 01:46:51 18° NNW 01:46:51 18° NNW
ADEOS Rocket 3.5 01:49:19 10° N 01:55:53 54° WNW 01:55:53 54° WNW
Cosmos 1656 4.5 01:57:50 10° NNW 02:03:21 46° ENE 02:03:25 46° ENE
Resurs 1-4 Rocket 4.3 02:01:34 10° NE 02:04:34 15° E 02:04:38 15° E
CZ-4B R/B 4.5 02:20:48 15° N 02:20:48 15° N 02:21:29 10° N
Lacrosse 4 Rocket 3.3 02:14:25 10° NNW 02:17:39 30° NNE 02:17:39 30° NNE
Cosmos 1833 Rocket 3.7 02:23:18 37° E 02:23:18 37° E 02:27:42 10° NE
Cosmos 2369 4.0 02:18:11 10° NNW 02:23:11 62° NNE 02:23:11 62° NNE
Cosmos 909 Rocket 4.1 02:24:22 10° NNW 02:30:40 74° NE 02:31:19 68° E
Gbstr 26 Del rocket 4.4 02:41:39 61° W 02:43:08 79° NNW 02:50:18 10° ENE
Lacrosse 5 rocket 3.2 02:47:04 27° ENE 02:47:04 27° ENE 02:49:04 10° NE
Cosmos 1607 3.9 02:48:50 77° SE 02:48:56 77° ESE 02:55:26 10° NE
ARIANE 5 R/B 4.1 02:48:45 10° NE 02:53:04 25° E 02:54:02 24° ESE
Cosmos 332 Rocket 4.3 02:55:10 56° NNE 02:55:10 56° NNE 02:58:57 10° NNE
Cosmos 371 Rocket 3.8 02:55:50 58° NE 02:55:50 58° NE 02:59:46 10° NNE
Cosmos 1867 3.8 02:49:42 10° NNW 02:54:25 66° NNW 02:54:25 66° NNW
Cosmos 2034 Rocket 3.9 02:55:25 72° W 02:55:26 72° W 03:01:42 10° N
MOS 1 Rocket 4.4 02:52:36 10° N 02:55:53 37° NW 02:55:53 37° NW
Meteor 1-23 Rocket 4.1 03:03:03 88° ESE 03:03:04 88° E 03:08:48 10° N
Meteor 2-4 Rocket 4.0 03:03:46 53° NW 03:03:46 53° NW 03:08:27 10° N
Cosmos 1092 Rocket 3.9 02:59:33 10° N 03:05:49 82° E 03:06:47 66° SSE
CZ-2D R/B 2.5 03:04:13 10° NNE 03:09:31 55° E 03:09:59 53° ESE
Cosmos 2278 4.3 03:10:29 10° NNW 03:14:35 43° WNW 03:14:35 43° WNW
Cosmos 1980 Rocket 2.4 03:13:34 10° NNW 03:19:11 69° ENE 03:21:31 36° SE
IRS-1D 3.9 03:14:42 10° NNE 03:19:49 57° E 03:20:30 52° SE
Cosmos 1697 Rocket 2.7 03:15:54 10° NNW 03:21:08 66° W 03:21:08 66° W
IRS-P3 Rocket 4.5 03:17:33 10° NNE 03:23:03 86° WNW 03:23:26 78° SW
SL-16 R/B 2.4 03:21:58 59° S 03:23:16 82° WSW 03:29:34 10° NNW
Okean 1-7 Rocket 4.3 03:23:57 46° ESE 03:24:12 47° E 03:28:33 10° NNE
H-2A R/B 2.9 03:20:35 10° N 03:24:09 61° N 03:24:09 61° N
IRS-1C 4.1 03:20:19 10° NNE 03:25:41 77° ESE 03:26:18 67° SSE
Cosmos 304 Rocket 3.9 03:28:51 61° ESE 03:29:03 62° ESE 03:33:50 10° NNE
ADEOS II 4.3 03:25:38 10° NE 03:29:24 20° E 03:33:08 10° SE
Cosmos 2082 Rocket 2.1 03:30:21 64° W 03:30:52 67° WNW 03:36:31 10° NNE
Cosmos 1544 4.1 03:27:24 10° N 03:30:28 44° NE 03:30:28 44° NE
SL-16 R/B 3.9 03:26:59 10° N 03:32:06 33° NE 03:37:11 10° ESE
Cosmos 1627 Rocket 4.4 03:27:31 10° N 03:33:56 88° W 03:35:57 47° S
Cosmos 2228 4.5 03:32:11 10° N 03:36:07 34° ENE 03:38:16 21° SE
Cosmos 1340 Rocket 4.2 03:40:10 29° NW 03:40:10 29° NW 03:42:40 10° N
MOZ.5/SAFIR/RUBIN 5/SL-8 3.7 03:38:46 71° SSE 03:39:17 86° ENE 03:44:04 10° NNW
Cosmos 1606 Rocket 3.9 03:35:06 10° N 03:39:23 60° E 03:40:03 53° ESE
Exosat Rocket 4.4 03:33:42 10° NW 03:39:32 51° WSW 03:40:48 46° SW
Resurs 1-4 Rocket 2.0 03:39:41 10° N 03:44:56 73° WNW 03:45:43 62° SW
Cosmos 2322 Rocket 3.5 03:42:22 10° NNW 03:47:40 40° ENE 03:52:56 10° SE
SJ 16-02 4.3 03:47:41 10° NNE 03:50:36 17° ENE 03:53:30 10° E
COSMOS 2487 3.1 03:52:42 50° N 03:52:42 50° N 03:55:27 10° NNE
ERS-1 4.3 03:47:17 10° NNE 03:52:16 85° WNW 03:53:14 59° SSW
Cosmos 1892 Rocket 4.0 03:52:40 43° SSE 03:53:48 57° E 03:58:07 10° NNE
ATLAS 3B R/B 3.7 03:50:47 23° SSE 03:54:40 40° ESE 04:01:03 10° NE
SL-08 R/B 4.1 03:55:46 36° WNW 03:55:46 36° WNW 03:59:29 10° NNW
Cosmos 1634 Rocket 4.1 03:54:14 46° SW 03:55:49 60° WNW 04:02:02 10° N
Cosmos 1025 Rocket 3.5 03:56:43 44° WNW 03:56:43 44° WNW 04:00:28 10° N
NPP 4.2 03:51:43 10° N 03:56:46 41° WNW 03:57:35 39° W
Cosmos 1763 Rocket 4.1 03:54:44 32° SSE 03:56:52 51° ESE 04:02:01 10° NNE
Lacrosse 4 Rocket 3.8 03:53:12 10° NW 03:53:55 14° NW 03:53:55 14° NW
Cosmos 1833 Rocket 3.6 04:04:59 30° W 04:06:27 34° NW 04:11:36 10° N
Cosmos 1805 3.8 04:03:50 10° N 04:07:41 57° E 04:09:41 26° SSE
Cosmos 2208 Rocket 4.1 04:07:31 46° WSW 04:08:52 62° WNW 04:14:06 10° NNE
Cosmos 2279 Rocket 3.9 04:06:08 35° SSW 04:08:56 78° W 04:15:14 10° N
Cosmos 1898 Rocket 3.4 04:05:21 10° NNW 04:10:31 64° WSW 04:12:50 32° S
Cosmos 44 3.6 04:07:44 10° NNW 04:12:59 78° NE 04:18:21 10° SE
Cosmos 1766 3.1 04:11:10 10° NNW 04:15:04 77° W 04:15:42 59° SSW
USA 215 4.2 04:10:15 10° ENE 04:16:15 37° SE 04:20:18 19° S
Cosmos 2026 Rocket 4.3 04:10:14 10° NNW 04:16:18 47° W 04:18:34 34° SW
Iridium 4 Rocket 4.4 04:20:22 25° WNW 04:20:22 25° WNW 04:23:52 10° NNW
Cosmos 1937 Rocket 3.3 04:15:27 10° NNW 04:20:38 72° WSW 04:25:29 11° S
Cosmos 1356 Rocket 3.8 04:23:17 40° W 04:23:36 41° WNW 04:27:27 10° N
Lacrosse 5 rocket 2.8 04:22:44 22° WNW 04:24:22 29° NNW 04:27:58 10° NNE
Cosmos 858 Rocket 4.5 04:20:14 10° NNW 04:25:20 58° WSW 04:28:52 20° S
ARIANE 5 R/B 3.0 04:27:23 10° N 04:32:21 44° WNW 04:34:24 30° WSW
Okean O Rocket 4.4 04:31:04 10° ENE 04:33:17 14° E 04:35:30 10° ESE
Cosmos 724 4.2 04:31:12 30° SW 04:34:08 75° NW 04:39:58 10° NNE
Cosmos 468 Rocket 4.4 04:32:26 31° WSW 04:34:36 49° WNW 04:39:46 10° N
Cosmos 1758 3.7 04:31:21 10° N 04:35:19 65° E 04:39:16 10° SSE
Cosmos 990 Rocket 4.0 04:30:34 10° NNW 04:35:35 53° WSW 04:40:22 11° S
Helios 1A Rocket 3.4 04:34:40 10° N 04:38:38 44° WNW 04:39:56 33° WSW
CZ-2D R/B 3.6 04:36:39 10° N 04:40:39 54° WNW 04:42:18 32° SW
Timation 2 Rocket 3.8 04:37:40 24° SSW 04:41:27 84° WNW 04:47:28 10° NNE
Cosmos 44 Rocket 3.4 04:37:12 10° NW 04:42:21 88° WSW 04:47:34 10° SSE
Cosmos 1733 3.6 04:39:53 10° N 04:43:45 66° E 04:47:36 10° SSE
Cosmos 1814 Rocket 4.0 04:41:18 27° SW 04:44:06 66° WNW 04:49:17 10° NNE
Cosmos 1726 Rocket 4.4 04:45:02 10° NNW 04:48:46 29° W 04:49:39 26° WSW
CZ-2D R/B 3.5 04:45:05 10° NNW 04:49:11 23° WNW 04:51:19 18° W
Cosmos 2150 Rocket 4.2 04:44:37 10° NNW 04:49:59 56° WSW 04:55:17 10° S
Cosmos 2266 Rocket 3.9 04:45:41 10° NNW 04:51:44 72° W 04:57:51 10° S
USA 267 4.4 04:46:06 10° E 04:52:13 44° NNE 04:58:19 10° NW
PSLV R/B 4.2 04:51:51 10° NNE 04:56:00 52° E 05:00:05 10° S
Cosmos 2298 Rocket 4.4 04:52:10 10° NNW 04:57:10 43° WSW 05:02:08 10° S
USA 238 DEB 3.7 04:52:34 20° SW 04:57:38 80° NW 05:04:40 10° NE
USA 238 3.7 04:52:39 20° SW 04:57:44 81° NW 05:04:46 10° NE
DNEPR-1 R/B 3.9 04:55:33 18° SSW 04:58:36 63° ESE 05:03:10 10° NE
Cosmos 2360 Rocket 2.7 04:55:05 10° NNW 05:00:42 64° ENE 05:06:16 10° SE
Meteor 1-21 4.5 04:58:09 18° SW 05:02:13 50° WNW 05:07:41 10° N
Cosmos 1980 Rocket 3.5 04:58:53 10° WNW 05:02:34 18° W 05:03:11 18° WSW
UNKNOWN OBJECT B 3.8 04:59:49 10° N 05:03:09 28° WNW 05:04:43 21° WSW
Cosmos 1812 Rocket 3.6 05:01:32 10° N 05:06:03 88° E 05:10:29 10° S
CZ-4B R/B 3.8 05:02:14 10° NNE 05:06:22 49° E 05:10:15 10° S
SL-16 R/B 4.2 05:07:03 13° W 05:07:47 13° W 05:10:34 10° WNW
ADEOS II 2.2 05:04:20 10° N 05:09:29 57° WNW 05:14:15 12° SSW
Cosmos 1470 2.7 05:06:12 10° N 05:10:13 79° W 05:14:10 10° S
Cosmos 2058 Rocket 4.2 05:06:46 10° NNW 05:10:24 25° W 05:12:40 17° SW
Gblst 52 Del rocket 4.5 05:04:32 10° WNW 05:10:29 90° NNE 05:17:19 10° ESE
ADEOS 4.4 05:06:34 10° N 05:11:16 35° WNW 05:14:53 16° SW
Cosmos 1602 Rocket 3.5 05:08:08 11° SSW 05:12:16 65° W 05:16:35 10° N
Cosmos 841 Rocket 3.8 05:08:36 17° SW 05:12:28 51° WNW 05:17:33 10° NNE
USA 161 3.8 05:10:21 10° SE 05:13:01 29° ENE 05:15:38 10° N
Cosmos 2228 4.3 05:10:14 10° NW 05:13:25 21° W 05:15:04 17° WSW
Cosmos 2082 Rocket 4.2 05:13:15 10° WNW 05:16:06 14° NW 05:18:58 10° N
SL-16 R/B 2.5 05:11:00 10° NW 05:16:18 42° WSW 05:21:35 10° S
BREEZE-M DEB (TANK) 2.4 05:18:43 17° SSW 05:20:08 38° SE 05:22:35 10° ENE
COSMOS 2428 4.2 05:14:48 10° NNW 05:20:11 41° ENE 05:25:31 10° SE
Cosmos 1238 Rocket 4.4 05:15:59 10° S 05:22:28 74° E 05:29:09 10° NNE
Resurs 1-4 Rocket 4.1 05:22:14 10° NW 05:23:51 11° NW 05:25:28 10° WNW
Cosmos 1626 Rocket 4.0 05:20:50 11° SSW 05:24:44 42° WNW 05:28:52 10° N
Cosmos 2219 Rocket 4.2 05:22:33 10° N 05:27:36 33° NE 05:32:36 10° ESE
Cosmos 540 Rocket 3.5 05:22:45 10° SSW 05:27:50 64° WNW 05:32:58 10° NNE
Cosmos 1378 3.3 05:24:25 10° SSW 05:28:05 52° WNW 05:31:46 10° N
Cosmos 1707 2.7 05:24:52 10° SSW 05:28:43 73° W 05:32:37 10° N
SJ 16-02 1.4 05:25:14 10° NNW 05:29:33 54° WSW 05:33:51 10° S
Cosmos 2322 Rocket 2.8 05:26:37 10° NW 05:31:36 33° WSW 05:36:33 10° SSW
Meteor 1-16 Rocket 4.3 05:28:07 10° N 05:33:50 83° E 05:39:20 10° SSE
ATLAS CENTAUR R/B 1.6 05:29:52 10° NW 05:34:16 87° NE 05:38:57 10° SE
NOSS 3-2 (C) 3.6 05:28:47 10° SSW 05:34:43 83° SE 05:41:22 10° NE
Cosmos 292 Rocket 4.4 05:30:42 11° SW 05:35:04 39° WNW 05:39:35 10° N
BREEZE-M R/B 3.7 05:35:56 10° W 05:39:34 64° NNW 05:47:01 10° ENE
Cosmos 1833 4.3 05:36:01 10° SSW 05:41:50 77° WNW 05:47:39 10° NNE
Meteor 1-31 Rocket 3.3 05:39:45 10° NNE 05:43:38 62° ESE 05:47:25 10° S
Cosmos 1953 3.4 05:41:49 10° NNW 05:45:14 26° W 05:48:38 10° SW
ATLAS 3B R/B 3.2 05:38:18 10° WSW 05:45:16 51° NW 05:51:57 10° NNE
MOS 1-B 4.4 05:39:53 10° N 05:45:40 68° WNW 05:51:25 10° SSW
PSLV R/B 3.8 05:42:00 10° N 05:45:50 61° WNW 05:49:32 10° SSW
PAYLOAD B 4.4 05:43:21 10° NNE 05:49:00 82° ESE 05:54:37 10° SSW
NOSS 3-2 (A) 3.7 05:45:42 10° SW 05:51:36 60° NW 05:58:13 10° NNE
